"Pseudo-MPEC" for P1163fO

Created 2020 Sep 20 23:07:24 UT using Find_Orb

Click here for an explanation of pseudo-MPECs

 
 Astrometry: 
     P1163fO  C2020 09 14)?!rKoYqwTnk?#]%v/vTd-VY9Gk?N^@FcAstrometryv;wml+1`wF51
     P1163fO  C2020 09 14P40:w`nm%O,LuKkIceJM;?$.2/?L`IjO3^LsShf2r^9w)aHfhc,lF51
     P1163fO  C2020 09 14KrUredacted;DDnik[clickMqUZhere`uFXn_Kkhg,k.N.:@Zfv$F51
     P1163fO  C2020 09 140lLS]b[.for=;n8b`GQ,isl4'AwuaWa75Kexplanation]%t$`)uF51

Station data:
(F51) Pan-STARRS 1, Haleakala  (N20.707235 W156.255910)  US/Hawaii.
   Observers N. Primak, A. Schultz, S. Watters, J. Thiel, T. Goggia. Measurer
   PS1 Science Consortium. 1.8-m Ritchey-Chrétien + CCD.

Orbital elements:  P1163fO
   Perihelion 2020 May 4.955032 +/- 57.9 TT = 22:55:14 (JD 2458974.455032)
Epoch 2020 Sep 15.0 TT = JDT 2459107.5   Earth MOID: 0.0317   AutoNEOCP
M 141.31652188 +/- 120              (J2000 ecliptic)
n   1.06217111 +/- 0.773            Peri.   34.76560 +/- 90
a   0.95134869 +/- 0.462            Node   172.52970 +/- 35
e   0.1164031 +/- 0.257             Incl.   32.78115 +/- 49
P   0.93/338.92d           H 23.3   G  0.15   U 12.6  SR
q 0.84060875 +/- 0.366    Q 1.06208863 +/- 10.5
From 4 observations 2020 Sept. 14 (49.0 min); mean residual 0".12
Residuals in arcseconds: 
200914 F51  .11+  .15-    200914 F51  .08-  .00     
200914 F51  .13-  .23+    200914 F51  .10+  .07-    

Ephemerides (geocentric):
Date (UTC) HH   RA              Dec         delta   r     elong  mag " sig PA
---- -- -- --  -------------   -----------  ------ ------ -----  --- ---- ---
2020 09 20 23  03 46 52.519   -41 53 14.66  .10039 1.0481 113.5 20.6  59d   6
2020 09 21 00  03 46 52.809   -42 03 11.01  .10065 1.0481 113.4 20.6  59d   6
2020 09 21 01  03 46 53.088   -42 13 04.22  .10091 1.0482 113.4 20.6  59d   6
2020 09 21 02  03 46 53.358   -42 22 54.33  .10117 1.0482 113.3 20.6  59d   6
2020 09 21 03  03 46 53.618   -42 32 41.35  .10143 1.0483 113.3 20.6  58d   5
2020 09 21 04  03 46 53.869   -42 42 25.28  .10169 1.0483 113.2 20.6  58d   5
2020 09 21 05  03 46 54.109   -42 52 06.15  .10196 1.0483 113.2 20.6  58d   5
2020 09 21 06  03 46 54.340   -43 01 43.96  .10222 1.0484 113.1 20.6  58d   5
2020 09 21 07  03 46 54.561   -43 11 18.74  .10249 1.0484 113.1 20.7  58d   4
2020 09 21 08  03 46 54.772   -43 20 50.50  .10275 1.0484 113.0 20.7  58d   4
2020 09 21 09  03 46 54.973   -43 30 19.25  .10302 1.0485 113.0 20.7  58d   4
2020 09 21 10  03 46 55.165   -43 39 45.00  .10329 1.0485 112.9 20.7  57d   4
2020 09 21 11  03 46 55.347   -43 49 07.78  .10356 1.0485 112.9 20.7  57d   3
2020 09 21 12  03 46 55.519   -43 58 27.59  .10383 1.0486 112.9 20.7  57d   3
2020 09 21 13  03 46 55.681   -44 07 44.45  .10410 1.0486 112.8 20.7  57d   3
2020 09 21 14  03 46 55.834   -44 16 58.38  .10437 1.0487 112.8 20.7  57d   3
2020 09 21 15  03 46 55.976   -44 26 09.39  .10464 1.0487 112.7 20.7  57d   4
2020 09 21 16  03 46 56.109   -44 35 17.50  .10491 1.0487 112.7 20.7  57d   3
2020 09 21 17  03 46 56.233   -44 44 22.71  .10518 1.0488 112.6 20.7  57d   3
2020 09 21 18  03 46 56.346   -44 53 25.05  .10546 1.0488 112.6 20.7  57d   3
2020 09 21 19  03 46 56.450   -45 02 24.53  .10573 1.0488 112.5 20.7  57d   3
2020 09 21 20  03 46 56.543   -45 11 21.16  .10601 1.0489 112.5 20.7  57d   3
2020 09 21 21  03 46 56.627   -45 20 14.97  .10628 1.0489 112.4 20.7  57d   3
2020 09 21 22  03 46 56.702   -45 29 05.95  .10656 1.0490 112.4 20.8  57d   3
2020 09 21 23  03 46 56.766   -45 37 54.14  .10683 1.0490 112.3 20.8  57d   3
2020 09 22 00  03 46 56.821   -45 46 39.54  .10711 1.0490 112.3 20.8  57d   2
2020 09 22 01  03 46 56.866   -45 55 22.17  .10739 1.0491 112.2 20.8  57d   2
2020 09 22 02  03 46 56.901   -46 04 02.04  .10767 1.0491 112.2 20.8  56d   2
2020 09 22 03  03 46 56.926   -46 12 39.17  .10795 1.0491 112.1 20.8  56d   2
2020 09 22 04  03 46 56.942   -46 21 13.57  .10823 1.0492 112.1 20.8  56d   2
2020 09 22 05  03 46 56.948   -46 29 45.26  .10851 1.0492 112.0 20.8  56d   2
2020 09 22 06  03 46 56.944   -46 38 14.25  .10879 1.0492 112.0 20.8  56d   3
2020 09 22 07  03 46 56.930   -46 46 40.56  .10907 1.0493 111.9 20.8  57d   4
2020 09 22 08  03 46 56.906   -46 55 04.20  .10936 1.0493 111.9 20.8  57d   4
2020 09 22 09  03 46 56.873   -47 03 25.19  .10964 1.0494 111.8 20.8  58d   4
2020 09 22 10  03 46 56.830   -47 11 43.54  .10992 1.0494 111.8 20.8  58d   4
2020 09 22 11  03 46 56.777   -47 19 59.26  .11021 1.0494 111.7 20.8  58d   3
2020 09 22 12  03 46 56.714   -47 28 12.38  .11049 1.0495 111.7 20.8  58d   3
2020 09 22 13  03 46 56.641   -47 36 22.89  .11078 1.0495 111.6 20.9  60d   2
2020 09 22 14  03 46 56.559   -47 44 30.83  .11107 1.0495 111.6 20.9  60d   2
2020 09 22 15  03 46 56.467   -47 52 36.20  .11135 1.0496 111.5 20.9  60d   1
2020 09 22 16  03 46 56.365   -48 00 39.02  .11164 1.0496 111.5 20.9  60d   1
2020 09 22 17  03 46 56.253   -48 08 39.30  .11193 1.0496 111.4 20.9  60d   1
2020 09 22 18  03 46 56.132   -48 16 37.06  .11222 1.0497 111.4 20.9  60d   1
2020 09 22 19  03 46 56.000   -48 24 32.31  .11251 1.0497 111.3 20.9  60d   1
2020 09 22 20  03 46 55.859   -48 32 25.07  .11280 1.0497 111.3 20.9  60d   1
2020 09 22 21  03 46 55.708   -48 40 15.34  .11309 1.0498 111.2 20.9  60d   0
2020 09 22 22  03 46 55.548   -48 48 03.15  .11338 1.0498 111.2 20.9  60d   0